Location: Peebles
(55.6412°N, 3.1714°W)
Time: 09:55:02
(UTC+01:00)

NOSS 3-3 (A) - Pass Details

Date: 30 January 2022
Orbit: 789 x 1423 km, 63.4° (Epoch: 23 April)

Event Time Altitude Azimuth Distance (km) Brightness Sun altitude
Rises 05:39:23 0° 171° (S) 3,371 6.9 -21.0°
Reaches altitude 10° 05:42:22 10° 155° (SSE) 2,509 6.5 -20.6°
Maximum altitude 05:46:24 20° 110° (ESE) 2,016 6.5 -20.0°
Drops below altitude 10° 05:50:48 10° 66° (ENE) 2,777 7.3 -19.4°
Sets 05:54:18 0° 51° (NE) 3,855 7.9 -18.9°
